Terminal Aerodrome Forecast
Issued by NWS

Home | Current Version | Previous Version | Text Only | Print | Product List | Glossary On
Versions: 1 2 3 4 5 6 7 8 9 10 11 12 13 14 15 16 17 18 19 20 21 22 23 24
000
FTUS43 KLSX 010914 AAB
TAFSUS
TAF AMD
KSUS 010914Z 0109/0206 VRB05KT 6SM -SHRA BR BKN040 OVC080
     FM011300 21006KT 6SM -SHRA OVC040
     FM011800 18008KT P6SM BKN060
     FM020000 17009KT 5SM SHRA VCTS OVC040CB=

USA.gov is the U.S. government's official web portal to all federal, state and local government web resources and services.